TimeCDT,TemperatureF,Dew PointF,Humidity,Sea Level PressureIn,VisibilityMPH,Wind Direction,Wind SpeedMPH,Gust SpeedMPH,PrecipitationIn,Events,Conditions,WindDirDegrees,DateUTC
12:56 AM,64.9,60.1,84,30.02,10.0,North,10.4,-,N/A,,Partly Cloudy,360,2012-10-07 05:56:00
1:56 AM,62.1,57.0,84,30.03,10.0,North,8.1,-,N/A,,Partly Cloudy,360,2012-10-07 06:56:00
2:49 AM,60.8,57.2,88,30.04,10.0,North,10.4,-,N/A,,Scattered Clouds,350,2012-10-07 07:49:00
2:56 AM,61.0,55.9,83,30.03,10.0,North,12.7,-,N/A,,Scattered Clouds,350,2012-10-07 07:56:00
3:03 AM,60.8,55.4,82,30.03,10.0,North,10.4,-,N/A,,Mostly Cloudy,350,2012-10-07 08:03:00
3:56 AM,59.0,55.0,87,30.02,7.0,NNW,9.2,-,N/A,,Mostly Cloudy,340,2012-10-07 08:56:00
4:56 AM,57.9,55.0,90,30.04,8.0,North,9.2,-,N/A,,Mostly Cloudy,350,2012-10-07 09:56:00
5:56 AM,57.9,54.0,87,30.04,8.0,NNW,9.2,-,N/A,,Mostly Cloudy,340,2012-10-07 10:56:00
6:10 AM,57.2,53.6,88,30.05,10.0,NNW,6.9,-,N/A,,Partly Cloudy,340,2012-10-07 11:10:00
6:46 AM,57.2,55.4,94,30.06,10.0,North,12.7,-,N/A,,Mostly Cloudy,350,2012-10-07 11:46:00
6:56 AM,57.9,55.0,90,30.06,10.0,North,9.2,-,N/A,,Overcast,350,2012-10-07 11:56:00
7:56 AM,59.0,55.0,87,30.09,10.0,North,12.7,-,N/A,,Overcast,350,2012-10-07 12:56:00
8:56 AM,60.1,55.0,83,30.10,10.0,North,12.7,-,N/A,,Overcast,360,2012-10-07 13:56:00
9:56 AM,62.1,55.0,78,30.11,10.0,North,16.1,19.6,N/A,,Overcast,10,2012-10-07 14:56:00
10:33 AM,62.6,55.4,77,30.12,10.0,NNW,11.5,-,N/A,,Overcast,340,2012-10-07 15:33:00
10:56 AM,64.9,55.9,73,30.11,10.0,NNE,10.4,-,N/A,,Overcast,20,2012-10-07 15:56:00
11:14 AM,66.2,55.4,68,30.11,10.0,NNE,10.4,-,N/A,,Scattered Clouds,20,2012-10-07 16:14:00
11:56 AM,69.1,57.0,65,30.09,10.0,North,10.4,-,N/A,,Scattered Clouds,350,2012-10-07 16:56:00
12:56 PM,72.0,57.9,61,30.06,10.0,NNW,11.5,-,N/A,,Scattered Clouds,340,2012-10-07 17:56:00
1:56 PM,73.0,57.9,59,30.04,10.0,North,10.4,17.3,N/A,,Partly Cloudy,360,2012-10-07 18:56:00
2:56 PM,73.0,57.9,59,30.03,10.0,North,15.0,-,N/A,,Clear,360,2012-10-07 19:56:00
3:56 PM,73.0,57.0,57,30.02,10.0,NNW,9.2,-,N/A,,Clear,340,2012-10-07 20:56:00
4:56 PM,71.1,55.9,59,30.02,10.0,North,9.2,-,N/A,,Partly Cloudy,360,2012-10-07 21:56:00
5:56 PM,68.0,55.0,63,30.03,10.0,North,9.2,-,N/A,,Scattered Clouds,360,2012-10-07 22:56:00
6:56 PM,64.9,54.0,68,30.06,10.0,North,10.4,-,N/A,,Scattered Clouds,10,2012-10-07 23:56:00
7:56 PM,62.1,53.1,72,30.07,10.0,North,9.2,-,N/A,,Scattered Clouds,10,2012-10-08 00:56:00
8:56 PM,60.1,52.0,75,30.10,10.0,North,10.4,-,N/A,,Partly Cloudy,10,2012-10-08 01:56:00
9:56 PM,57.9,50.0,75,30.11,10.0,North,9.2,-,N/A,,Partly Cloudy,10,2012-10-08 02:56:00
10:56 PM,57.0,50.0,77,30.10,10.0,North,9.2,-,N/A,,Scattered Clouds,10,2012-10-08 03:56:00
11:56 PM,55.9,48.9,77,30.09,10.0,North,10.4,-,N/A,,Scattered Clouds,10,2012-10-08 04:56:00